C/2017 O1 ( ASASSN )

Japanese version
Home page
Updated on February 13, 2018

---------------------------------------------------------------------

* Profile

Discovery Date July 19, 2017
Magnitude 15.3 mag
Discoverer All-Sky Automated Survey for Supernovae (ASASSN)

* Pictures

* Orbital Elements

Epoch 2017 Oct. 14.0 TT = JDT 2458040.5
T 2017 Oct. 14.78530 TT                                 MPCW
q   1.4986834            (2000.0)            P               Q
z  +0.0023963      Peri.   20.90794     +0.72168442     -0.63351910
 +/-0.0000012      Node    25.80938     +0.50849151     +0.21172543
e   0.9964087      Incl.   39.84825     +0.46968924     +0.74419479
From 2538 observations 2017 July 19-2018 Jan. 25, mean residual 0".4.

* Finding Charts

* Magnitudes Graph

        m1 = 5.0 + 5 log d + 20.0 log r(t + 35)

---------------------------------------------------------------------

The orbital elements are published on M.P.E.C. 2018-B155.
The charts are made with StellaNavigator Ver.10 (AstroArts).
The magnitudes graphs are made with Comet for Windows.

---------------------------------------------------------------------

Copyright(C) Seiichi Yoshida (comet@aerith.net). All rights reserved.